User: anonymous   Login
Location: Unspecified
(0.0000°N, 0.0000°E)
Time: 13:26:04
(UTC+00:00)
Language:

OPTUS 1C - Orbit

View from above orbital plane
View from above orbital plane
View from above satellite
View from above satellite

Ground track
Ground track

The orbit data is extracted from the following two-line orbital elements,

1 27831U 03028B   14296.64015973 -.00000147  00000-0  00000+0 0  2604
2 27831 000.0388 132.3112 0003938 067.5309 218.6357 01.00273007 41667
Epoch (UTC): 23 October 2014 15:21:49
Eccentricity: 0.0003938
inclination: 0.0388°
perigee height: 35769 km
apogee height: 35802 km
right ascension of ascending node: 132.3112°
argument of perigee: 67.5309°
revolutions per day: 1.00273007
mean anomaly at epoch: 218.6357°
orbit number at epoch: 4166

The dashed part of the orbit path shows where the satellite is in the earth's shadow,  

DLR